| time (UTC) | temp F | wind direction | speed MPH | gust MPH | rain 1hr in | rain 24hr in | rain mn in | humidity % | barometer mb |
| 20260510073003 | 79 | 54 | 1.0 | 2.0 | 0.00 | 0.00 | 0.00 | 12 | 1004.9 |
| 20260510071502 | 80 | 140 | 1.0 | 2.0 | 0.00 | 0.00 | 0.00 | 12 | 1004.7 |
| 20260510070005 | 81 | 165 | 0.0 | 2.0 | 0.00 | 0.00 | 0.00 | 12 | 1004.6 |
| 20260510064603 | 82 | 154 | 0.0 | 2.0 | 0.00 | 0.00 | 0.00 | 12 | 1004.5 |
| 20260510064500 | 82 | 155 | 0.0 | 3.0 | 0.00 | 0.00 | 0.00 | 12 | 1004.5 |
| 20260510063103 | 83 | 152 | 2.0 | 5.0 | 0.00 | 0.00 | 0.00 | 10 | 1004.2 |
| 20260510063002 | 83 | 152 | 3.0 | 5.0 | 0.00 | 0.00 | 0.00 | 10 | 1004.2 |
| 20260510061601 | 84 | 148 | 3.0 | 4.0 | 0.00 | 0.00 | 0.00 | 11 | 1004.2 |
| 20260510061501 | 84 | 155 | 2.0 | 4.0 | 0.00 | 0.00 | 0.00 | 11 | 1004.2 |
| 20260510060006 | 84 | 190 | 1.0 | 5.0 | 0.00 | 0.00 | 0.00 | 11 | 1004.1 |
| 20260510054600 | 83 | 175 | 2.0 | 4.0 | 0.00 | 0.00 | 0.00 | 11 | 1004.0 |
| 20260510054501 | 83 | 142 | 3.0 | 4.0 | 0.00 | 0.00 | 0.00 | 11 | 1004.0 |
| 20260510053001 | 84 | 130 | 0.0 | 1.0 | 0.00 | 0.00 | 0.00 | 12 | 1003.9 |
| 20260510051501 | 85 | 130 | 0.0 | 0.0 | 0.00 | 0.00 | 0.00 | 11 | 1003.9 |
| 20260510044500 | 88 | 135 | 1.0 | 3.0 | 0.00 | 0.00 | 0.00 | 10 | 1003.9 |
| 20260510043002 | 89 | 200 | 0.0 | 3.0 | 0.00 | 0.00 | 0.00 | 10 | 1003.8 |
| 20260510041500 | 89 | 147 | 1.0 | 7.0 | 0.00 | 0.00 | 0.00 | 9 | 1003.6 |
| 20260510040115 | 89 | 116 | 0.0 | 7.0 | 0.00 | 0.00 | 0.00 | 9 | 1003.4 |
| 20260510040004 | 89 | 126 | 1.0 | 7.0 | 0.00 | 0.00 | 0.00 | 9 | 1003.4 |
| 20260510034501 | 89 | 145 | 1.0 | 4.0 | 0.00 | 0.00 | 0.00 | 10 | 1003.1 |
| 20260510033001 | 90 | 234 | 1.0 | 2.0 | 0.00 | 0.00 | 0.00 | 10 | 1002.9 |
| 20260510031506 | 92 | 148 | 0.0 | 0.0 | 0.00 | 0.00 | 0.00 | 9 | 1002.7 |
| 20260510030008 | 92 | 149 | 0.0 | 2.0 | 0.00 | 0.00 | 0.00 | 8 | 1002.4 |
| 20260510024600 | 93 | 168 | 0.0 | 2.0 | 0.00 | 0.00 | 0.00 | 8 | 1002.2 |
| 20260510024502 | 93 | 168 | 0.0 | 2.0 | 0.00 | 0.00 | 0.00 | 8 | 1002.2 |
| 20260510023100 | 94 | 207 | 1.0 | 3.0 | 0.00 | 0.00 | 0.00 | 8 | 1002.2 |
| 20260510023002 | 94 | 206 | 1.0 | 3.0 | 0.00 | 0.00 | 0.00 | 8 | 1002.2 |
| 20260510021501 | 95 | 226 | 2.0 | 5.0 | 0.00 | 0.00 | 0.00 | 7 | 1002.1 |
| 20260510020002 | 96 | 296 | 1.0 | 4.0 | 0.00 | 0.00 | 0.00 | 7 | 1002.1 |
| 20260510014618 | 97 | 113 | 0.0 | 3.0 | 0.00 | 0.00 | 0.00 | 6 | 1002.0 |
| 20260510013103 | 99 | 241 | 0.0 | 4.0 | 0.00 | 0.00 | 0.00 | 6 | 1002.0 |
| 20260510011600 | 100 | 184 | 1.0 | 5.0 | 0.00 | 0.00 | 0.00 | 6 | 1001.9 |
| 20260510011503 | 100 | 165 | 0.0 | 8.0 | 0.00 | 0.00 | 0.00 | 6 | 1002.0 |
| 20260510010100 | 101 | 230 | 2.0 | 7.0 | 0.00 | 0.00 | 0.00 | 6 | 1001.9 |
| 20260510004501 | 102 | 276 | 2.0 | 5.0 | 0.00 | 0.00 | 0.00 | 5 | 1002.0 |
| 20260510003106 | 102 | 273 | 2.0 | 7.0 | 0.00 | 0.00 | 0.00 | 5 | 1002.0 |
| 20260510003002 | 102 | 208 | 1.0 | 7.0 | 0.00 | 0.00 | 0.00 | 5 | 1002.0 |
| 20260510001600 | 101 | 159 | 1.0 | 7.0 | 0.00 | 0.00 | 0.00 | 5 | 1002.0 |
| 20260510000006 | 99 | 121 | 2.0 | 9.0 | 0.00 | 0.00 | 0.00 | 5 | 1002.1 |
| 20260509234607 | 101 | 61 | 3.0 | 9.0 | 0.00 | 0.00 | 0.00 | 5 | 1002.2 |
| 20260509233100 | 100 | 347 | 1.0 | 4.0 | 0.00 | 0.00 | 0.00 | 6 | 1002.1 |
| 20260509231600 | 99 | 167 | 1.0 | 9.0 | 0.00 | 0.00 | 0.00 | 6 | 1002.3 |
| 20260509230003 | 99 | 13 | 2.0 | 7.0 | 0.00 | 0.00 | 0.00 | 6 | 1002.5 |
| 20260509224605 | 100 | 20 | 2.0 | 6.0 | 0.00 | 0.00 | 0.00 | 6 | 1002.7 |
| 20260509224500 | 100 | 266 | 2.0 | 6.0 | 0.00 | 0.00 | 0.00 | 6 | 1002.7 |
| 20260509223001 | 102 | 346 | 2.0 | 10.0 | 0.00 | 0.00 | 0.00 | 6 | 1003.0 |
| 20260509221501 | 101 | 268 | 1.0 | 8.0 | 0.00 | 0.00 | 0.00 | 6 | 1003.3 |
| 20260509214608 | 99 | 13 | 3.0 | 9.0 | 0.00 | 0.00 | 0.00 | 6 | 1003.8 |
| 20260509214500 | 99 | 328 | 4.0 | 9.0 | 0.00 | 0.00 | 0.00 | 7 | 1003.8 |
| 20260509213100 | 100 | 17 | 4.0 | 8.0 | 0.00 | 0.00 | 0.00 | 6 | 1004.1 |
| 20260509211601 | 103 | 159 | 2.0 | 8.0 | 0.00 | 0.00 | 0.00 | 5 | 1004.2 |
| 20260509210117 | 101 | 246 | 2.0 | 9.0 | 0.00 | 0.00 | 0.00 | 6 | 1004.5 |
| 20260509204601 | 100 | 340 | 2.0 | 8.0 | 0.00 | 0.00 | 0.00 | 7 | 1004.7 |
| 20260509203059 | 100 | 55 | 2.0 | 5.0 | 0.00 | 0.00 | 0.00 | 5 | 1004.9 |
| 20260509201604 | 99 | 313 | 3.0 | 8.0 | 0.00 | 0.00 | 0.00 | 8 | 1005.1 |
| 20260509200105 | 98 | 264 | 2.0 | 6.0 | 0.00 | 0.00 | 0.00 | 8 | 1005.2 |
| 20260509194608 | 97 | 331 | 4.0 | 8.0 | 0.00 | 0.00 | 0.00 | 8 | 1005.5 |
| 20260509194500 | 97 | 22 | 3.0 | 8.0 | 0.00 | 0.00 | 0.00 | 8 | 1005.5 |
| 20260509193059 | 96 | 30 | 3.0 | 6.0 | 0.00 | 0.00 | 0.00 | 9 | 1005.7 |
| 20260509191604 | 96 | 136 | 1.0 | 5.0 | 0.00 | 0.00 | 0.00 | 9 | 1005.8 |
| 20260509191500 | 96 | 141 | 1.0 | 5.0 | 0.00 | 0.00 | 0.00 | 9 | 1005.8 |
| 20260509190109 | 94 | 324 | 2.0 | 8.0 | 0.00 | 0.00 | 0.00 | 9 | 1006.1 |
| 20260509190001 | 94 | 355 | 2.0 | 8.0 | 0.00 | 0.00 | 0.00 | 9 | 1006.0 |
| 20260509184559 | 94 | 343 | 3.0 | 10.0 | 0.00 | 0.00 | 0.00 | 9 | 1006.2 |
| 20260509184500 | 94 | 26 | 3.0 | 10.0 | 0.00 | 0.00 | 0.00 | 9 | 1006.1 |
| 20260509183101 | 93 | 250 | 2.0 | 6.0 | 0.00 | 0.00 | 0.00 | 9 | 1006.3 |
| 20260509181602 | 92 | 319 | 4.0 | 8.0 | 0.00 | 0.00 | 0.00 | 10 | 1006.4 |
| 20260509174600 | 91 | 28 | 2.0 | 9.0 | 0.00 | 0.00 | 0.00 | 10 | 1006.5 |
| 20260509173102 | 91 | 65 | 1.0 | 9.0 | 0.00 | 0.00 | 0.00 | 10 | 1006.5 |
| 20260509171601 | 90 | 34 | 4.0 | 8.0 | 0.00 | 0.00 | 0.00 | 10 | 1006.5 |
| 20260509170108 | 89 | 355 | 3.0 | 8.0 | 0.00 | 0.00 | 0.00 | 11 | 1006.5 |
| 20260509164601 | 89 | 348 | 3.0 | 8.0 | 0.00 | 0.00 | 0.00 | 11 | 1006.4 |
| 20260509163100 | 88 | 309 | 1.0 | 4.0 | 0.00 | 0.00 | 0.00 | 12 | 1006.4 |
| 20260509161602 | 87 | 355 | 2.0 | 4.0 | 0.00 | 0.00 | 0.00 | 11 | 1006.5 |
| 20260509160100 | 86 | 16 | 1.0 | 3.0 | 0.00 | 0.00 | 0.00 | 13 | 1006.3 |
| 20260509160002 | 86 | 19 | 1.0 | 3.0 | 0.00 | 0.00 | 0.00 | 13 | 1006.4 |
| 20260509154602 | 86 | 281 | 1.0 | 4.0 | 0.00 | 0.00 | 0.00 | 15 | 1006.4 |
| 20260509153102 | 84 | 184 | 3.0 | 5.0 | 0.00 | 0.00 | 0.00 | 19 | 1006.4 |
| 20260509151603 | 83 | 244 | 0.0 | 3.0 | 0.00 | 0.00 | 0.00 | 20 | 1006.4 |
| 20260509150105 | 81 | 355 | 2.0 | 4.0 | 0.00 | 0.00 | 0.00 | 20 | 1006.4 |
| 20260509144600 | 81 | 287 | 1.0 | 3.0 | 0.00 | 0.00 | 0.00 | 20 | 1006.3 |
| 20260509143101 | 80 | 5 | 1.0 | 3.0 | 0.00 | 0.00 | 0.00 | 21 | 1006.3 |
| 20260509141600 | 79 | 185 | 0.0 | 3.0 | 0.00 | 0.00 | 0.00 | 22 | 1006.1 |
| 20260509140104 | 78 | 206 | 1.0 | 3.0 | 0.00 | 0.00 | 0.00 | 21 | 1005.9 |
| 20260509134628 | 77 | 242 | 0.0 | 1.0 | 0.00 | 0.00 | 0.00 | 20 | 1005.7 |
| 20260509133100 | 76 | 217 | 0.0 | 3.0 | 0.00 | 0.00 | 0.00 | 20 | 1005.6 |
| 20260509131558 | 76 | 165 | 1.0 | 5.0 | 0.00 | 0.00 | 0.00 | 20 | 1005.4 |
| 20260509130101 | 76 | 133 | 1.0 | 3.0 | 0.00 | 0.00 | 0.00 | 20 | 1005.2 |
| 20260509124601 | 77 | 146 | 3.0 | 8.0 | 0.00 | 0.00 | 0.00 | 20 | 1005.0 |
| 20260509123059 | 77 | 103 | 1.0 | 8.0 | 0.00 | 0.00 | 0.00 | 19 | 1004.9 |
| 20260509121558 | 77 | 142 | 3.0 | 7.0 | 0.00 | 0.00 | 0.00 | 19 | 1004.7 |
| 20260509120058 | 77 | 135 | 4.0 | 7.0 | 0.00 | 0.00 | 0.00 | 19 | 1004.6 |
| 20260509120001 | 77 | 148 | 4.0 | 7.0 | 0.00 | 0.00 | 0.00 | 19 | 1004.6 |
| 20260509114600 | 77 | 150 | 3.0 | 7.0 | 0.00 | 0.00 | 0.00 | 19 | 1004.6 |
| 20260509113059 | 78 | 142 | 1.0 | 4.0 | 0.00 | 0.00 | 0.00 | 19 | 1004.5 |
| 20260509111559 | 78 | 178 | 2.0 | 8.0 | 0.00 | 0.00 | 0.00 | 19 | 1004.5 |
| 20260509110059 | 78 | 186 | 3.0 | 7.0 | 0.00 | 0.00 | 0.00 | 19 | 1004.4 |
| 20260509104559 | 79 | 170 | 3.0 | 8.0 | 0.00 | 0.00 | 0.00 | 19 | 1004.4 |
| 20260509103059 | 79 | 141 | 4.0 | 7.0 | 0.00 | 0.00 | 0.00 | 18 | 1004.2 |
| 20260509101605 | 79 | 146 | 4.0 | 8.0 | 0.00 | 0.00 | 0.00 | 19 | 1004.3 |
| 20260509100059 | 80 | 161 | 4.0 | 7.0 | 0.00 | 0.00 | 0.00 | 18 | 1004.3 |
| 20260509094558 | 80 | 165 | 3.0 | 7.0 | 0.00 | 0.00 | 0.00 | 18 | 1004.3 |
| 20260509093100 | 81 | 200 | 4.0 | 10.0 | 0.00 | 0.00 | 0.00 | 18 | 1004.3 |
| 20260509091559 | 81 | 204 | 4.0 | 10.0 | 0.00 | 0.00 | 0.00 | 18 | 1004.4 |
| 20260509090100 | 81 | 180 | 6.0 | 9.0 | 0.00 | 0.00 | 0.00 | 18 | 1004.4 |
| 20260509084601 | 81 | 214 | 5.0 | 10.0 | 0.00 | 0.00 | 0.00 | 18 | 1004.4 |
| 20260509083058 | 82 | 161 | 4.0 | 11.0 | 0.00 | 0.00 | 0.00 | 17 | 1004.4 |
| 20260509081559 | 82 | 224 | 5.0 | 11.0 | 0.00 | 0.00 | 0.00 | 16 | 1004.4 |
| 20260509080059 | 82 | 190 | 5.0 | 8.0 | 0.00 | 0.00 | 0.00 | 16 | 1004.5 |
| 20260509080002 | 82 | 154 | 5.0 | 10.0 | 0.00 | 0.00 | 0.00 | 16 | 1004.5 |
| 20260509074502 | 82 | 159 | 6.0 | 9.0 | 0.00 | 0.00 | 0.00 | 15 | 1004.5 |